Weather History for Pellston, MI

Change the Weather History Date:

Friday, October 18, 2013

  Actual Average Record
Temperature  
Mean Temperature 42 °F -  
Max Temperature 54 °F 53 °F 82 °F (1950)
Min Temperature 32 °F 32 °F 18 °F (1952)
Degree Days  
Heating Degree Days 22    
Moisture  
Dew Point 40 °F    
Average Humidity 89    
Maximum Humidity 100    
Minimum Humidity 66    
Precipitation  
Precipitation 0.28 in - - ()
Sea Level Pressure  
Sea Level Pressure 29.78 in    
Wind  
Wind Speed 2 mph (NW)    
Max Wind Speed 9 mph    
Max Gust Speed -    
Visibility 9 miles    
Events Rain    
Averages and records for this station are not official NWS values.
T = Trace of Precipitation, MM = Missing Value Source: NWS Daily Summary

Daily Weather History Graph

Daily Weather History Graph

Search for Another Location

Airport:

Trip Planner

Search our weather history database for the weather conditions in past years. The results will help you decide how hot, cold, wet, or windy it might be!

Date:

Astronomy

Oct. 18, 2013 Rise Set
Actual Time 7:59 AM EDT 6:47 PM EDT
Civil Twilight 7:29 AM EDT 7:17 PM EDT
Nautical Twilight 6:55 AM EDT 7:52 PM EDT
Astronomical Twilight 6:21 AM EDT 8:26 PM EDT
Moon 6:36 PM EDT (10/18) 7:34 AM EDT (10/18)
Length of Visible Light 11h 48m
Length of Day
10h 48m
Full, 100% of the Moon is Illuminated
Oct 18
Full
Oct 18
Full
Oct 26
Last Quarter
Nov 3
New
Nov 10
First Quarter

Hourly Weather History & Observations

Time (EDT) Temp. Windchill Dew Point Humidity Pressure Visibility Wind Dir Wind Speed Gust Speed Precip Events Conditions
12:54 AM 36.0 °F - 35.1 °F 97% 29.76 in 9.0 mi Calm Calm - N/A   Partly Cloudy
1:14 AM 33.8 °F - 33.8 °F 100% 29.74 in 1.8 mi Calm Calm - N/A   Clear
1:22 AM 35.6 °F - 33.8 °F 93% 29.74 in 1.5 mi Calm Calm - N/A   Scattered Clouds
1:29 AM 35.6 °F - 33.8 °F 93% 29.74 in 3.0 mi Calm Calm - N/A   Scattered Clouds
1:54 AM 35.1 °F 32.2 °F 34.0 °F 96% 29.77 in 10.0 mi North 3.5 mph - N/A   Clear
2:54 AM 33.1 °F - 32.0 °F 96% 29.77 in 10.0 mi Calm Calm - N/A   Partly Cloudy
3:40 AM 32.0 °F - 30.2 °F 93% 29.75 in 10.0 mi Calm Calm - N/A   Partly Cloudy
3:54 AM 32.0 °F - 30.0 °F 92% 29.76 in 10.0 mi Calm Calm - N/A   Partly Cloudy
4:54 AM 32.0 °F - 30.0 °F 92% 29.76 in 10.0 mi Calm Calm - N/A   Clear
5:54 AM 34.0 °F - 32.0 °F 92% 29.76 in 10.0 mi Calm Calm - N/A   Scattered Clouds
6:54 AM 37.0 °F 33.3 °F 35.1 °F 93% 29.76 in 10.0 mi North 4.6 mph - N/A   Mostly Cloudy
7:54 AM 37.0 °F 34.5 °F 36.0 °F 96% 29.78 in 10.0 mi SSW 3.5 mph - 0.02 in   Mostly Cloudy
8:54 AM 39.0 °F - 37.0 °F 93% 29.78 in 10.0 mi Calm Calm - N/A   Overcast
9:54 AM 42.1 °F - 39.9 °F 92% 29.80 in 10.0 mi Calm Calm - N/A   Clear
10:54 AM 46.0 °F 42.5 °F 44.1 °F 93% 29.80 in 10.0 mi South 6.9 mph - N/A   Overcast
11:45 AM 46.4 °F - 42.8 °F 87% 29.79 in 10.0 mi Calm Calm - 0.00 in   Overcast
11:54 AM 48.0 °F - 43.0 °F 83% 29.80 in 10.0 mi Calm Calm - 0.00 in Rain Light Rain
12:06 PM 48.2 °F - 44.6 °F 87% 29.78 in 10.0 mi Calm Calm - 0.00 in   Overcast
12:54 PM 50.0 °F - 44.1 °F 80% 29.80 in 10.0 mi Calm Calm - 0.00 in Rain Light Rain
1:31 PM 48.2 °F - 44.6 °F 87% 29.78 in 10.0 mi South 6.9 mph - 0.00 in Rain Light Rain
1:54 PM 48.9 °F - 46.0 °F 90% 29.80 in 10.0 mi South 4.6 mph - 0.01 in Rain Light Rain
2:54 PM 52.0 °F - 46.0 °F 80% 29.78 in 10.0 mi Calm Calm - 0.00 in   Overcast
3:54 PM 53.1 °F - 43.0 °F 69% 29.78 in 10.0 mi WNW 4.6 mph - N/A   Overcast
4:54 PM 53.1 °F - 42.1 °F 66% 29.77 in 10.0 mi NW 9.2 mph - N/A   Mostly Cloudy
5:54 PM 51.1 °F - 42.1 °F 71% 29.78 in 10.0 mi NW 6.9 mph - N/A   Overcast
6:34 PM 46.4 °F 44.3 °F 42.8 °F 87% 29.78 in 2.0 mi West 4.6 mph - 0.09 in Rain Heavy Rain
6:45 PM 46.4 °F 44.3 °F 42.8 °F 87% 29.79 in 3.0 mi NW 4.6 mph - 0.18 in Rain Heavy Rain
6:54 PM 46.0 °F 42.5 °F 42.1 °F 86% 29.79 in 3.0 mi North 6.9 mph - 0.21 in Rain Rain
7:54 PM 46.0 °F 44.8 °F 44.1 °F 93% 29.81 in 10.0 mi NNW 3.5 mph - 0.01 in Rain Light Rain
8:54 PM 46.0 °F - 44.1 °F 93% 29.82 in 10.0 mi Calm Calm - 0.01 in   Overcast
9:22 PM 46.4 °F 45.2 °F 44.6 °F 93% 29.80 in 7.0 mi North 3.5 mph - 0.00 in Rain Light Rain
9:54 PM 46.0 °F 44.8 °F 44.1 °F 93% 29.82 in 10.0 mi NNW 3.5 mph - 0.01 in Rain Light Rain
10:46 PM 46.4 °F 44.3 °F 42.8 °F 87% 29.81 in 10.0 mi North 4.6 mph - 0.01 in   Overcast
10:54 PM 46.0 °F 43.9 °F 42.1 °F 86% 29.83 in 10.0 mi North 4.6 mph - 0.01 in   Overcast
11:34 PM 44.6 °F - 42.8 °F 93% 29.80 in 10.0 mi Calm Calm - N/A   Overcast
11:54 PM 44.1 °F - 41.0 °F 89% 29.82 in 10.0 mi Calm Calm - N/A   Overcast